Погода в Усть-Коксе

Россия / Республика Алтай     50°16′08″N   85°36′57″E
темп.,
°C
ветер,
м/с
пор.,
м/с
влажн.,
%
обл.,
%
осадки,
мм/ч
давл.,
гПа
погр.,
м
26 февраля, пт
пт2601:00−23юз41296100 0.8 10341102
04:00−24юз51494100 0.3 10371174
07:00−27юз3496100 0.5 1041113
10:00−25ю3689100 0.1 1041679
13:00−21ююз4974100 0.1 10401421
16:00−21ююз4874100 0.1 10381356
19:00−24ююз3386100 0.1 104159
22:00−27юз2289100 0.0 104325
27 февраля, сб
сб2701:00−27ю1191100 0.0 104323
04:00−27ююв1195100 0.0 104224
07:00−27юв1194100 0.1 104221
10:00−24юв1190100 0.0 1040145
13:00−18ююв2379100 0.0 1038662
16:00−16юз3572100 0.1 10361356
19:00−22зюз1289100 0.1 103920
22:00−26ююз119282 0.0 104222
28 февраля, вс
вс2801:00−27юв119368 0.0 104320
04:00−24вюв119174 0.0 104421
07:00−25юв119287 0.0 104420
10:00−21юв1290100 0.0 1043117
13:00−15юв2380100 0.0 1039446
16:00−13ююв2477100 0.0 1036744
19:00−16вюв2288100 0.1 103627
22:00−17юв2287100 0.0 103536
1 марта, пн
пн101:00−16юв2288100 0.0 103344
04:00−15ююв2290100 0.0 103148
07:00−15ююв1292100 0.1 103040
10:00−12ююв2392100 0.1 1028157
13:00−7ююв3487100 0.3 1025463
16:00−5ю2488100 0.3 1023585
19:00−8юз2296100 0.6 102432
22:00−10юз2294100 0.1 102530
2 марта, вт
вт201:00−11юз2294100 0.2 102534
04:00−11ююз1297100 0.3 102544
07:00−11ююв2295100 0.5 102537
10:00−8ююв2393100 0.1 1023187
13:00−5ю2493100 0.6 1021412
16:00−4юз3885100 0.7 10191038
19:00−7юз2292100 0.9 101935
22:00−8ююз2294100 0.1 102033